This is the latest recevied weather packets stored in our database for station/object K3MV-13. If no packets are shown the sender has not sent any weather packets the latest 10 day(s).
| Time | Temp. | Humidity | Pressure | Rain* | Wind** | Luminosity | Snow |
|---|---|---|---|---|---|---|---|
| 1777428356 | 12.22° C | 93% | 1015.9 hPa | 0 mm | - | 0 W/m² | - |
| 1777428052 | 12.22° C | 92% | 1016 hPa | 0 mm | - | 0 W/m² | - |
| 1777427748 | 12.22° C | 92% | 1015.8 hPa | 0 mm | - | 0 W/m² | - |
| 1777427446 | 12.22° C | 92% | 1015.7 hPa | 0 mm | - | 0 W/m² | - |
| 1777427141 | 12.22° C | 92% | 1015.8 hPa | 0 mm | - | 0 W/m² | - |
| 1777426839 | 12.22° C | 92% | 1015.7 hPa | 0 mm | - | 0 W/m² | - |
| 1777426536 | 12.22° C | 92% | 1015.6 hPa | 0 mm | - | 0 W/m² | - |
| 1777426232 | 12.22° C | 91% | 1015.3 hPa | 0 mm | - | 0 W/m² | - |
| 1777425927 | 12.78° C | 91% | 1015.4 hPa | 0 mm | - | 0 W/m² | - |
| 1777425622 | 12.78° C | 91% | 1015.4 hPa | 0 mm | - | 0 W/m² | - |
| 1777425318 | 12.78° C | 91% | 1015.3 hPa | 0 mm | - | 0 W/m² | - |
| 1777425015 | 12.78° C | 90% | 1015.3 hPa | 0 mm | - | 0 W/m² | - |
| 1777424711 | 12.78° C | 89% | 1015.2 hPa | 0 mm | - | 0 W/m² | - |
| 1777424406 | 13.33° C | 89% | 1015.1 hPa | 0 mm | - | 0 W/m² | - |
| 1777424103 | 13.33° C | 88% | 1015 hPa | 0 mm | - | 0 W/m² | - |
| 1777423800 | 13.89° C | 87% | 1014.8 hPa | 0 mm | - | 0 W/m² | - |
| 1777423496 | 13.89° C | 86% | 1014.6 hPa | 0 mm | - | 0 W/m² | - |
| 1777423191 | 14.44° C | 85% | 1014.7 hPa | 0 mm | - | 0 W/m² | - |
| 1777422890 | 15° C | 82% | 1014.2 hPa | 0 mm | - | 0 W/m² | - |
| 1777422587 | 15° C | 82% | 1014.3 hPa | 0 mm | - | 0 W/m² | - |
| 1777422283 | 15.56° C | 79% | 1014.3 hPa | 0 mm | - | 0 W/m² | - |
| 1777421983 | 16.11° C | 80% | 1014.3 hPa | 0 mm | - | 1 W/m² | - |
| 1777421678 | 16.11° C | 79% | 1014.6 hPa | 0 mm | - | 1 W/m² | - |
| 1777421372 | 16.67° C | 78% | 1014.9 hPa | 0 mm | - | 2 W/m² | - |
| 1777421070 | 16.67° C | 78% | 1015 hPa | 0 mm | - | 4 W/m² | - |
* Rain latest hour (hover to see other rain measurements)
** Current wind speed in m/s (hover to see current wind gust speed)